| time (UTC) | temp F | wind direction | speed MPH | gust MPH | rain 1hr in | rain 24hr in | rain mn in | humidity % | barometer mb |
| 20260502190040 | 63 | 69 | 10.0 | 14.0 | 0.00 | 0.00 | 0.00 | 94 | 1015.3 |
| 20260502184538 | 63 | 56 | 10.0 | 13.0 | 0.00 | 0.00 | 0.00 | 94 | 1015.2 |
| 20260502183037 | 63 | 33 | 6.0 | 12.0 | 0.00 | 0.00 | 0.00 | 95 | 1015.3 |
| 20260502181548 | 64 | 64 | 11.0 | 13.0 | 0.00 | 0.00 | 0.00 | 94 | 1015.5 |
| 20260502163023 | 64 | 60 | 9.0 | 12.0 | 0.00 | 0.00 | 0.00 | 93 | 1016.1 |
| 20260502161622 | 64 | 56 | 7.0 | 11.0 | 0.00 | 0.00 | 0.00 | 94 | 1016.4 |
| 20260502151516 | 65 | 59 | 8.0 | 12.0 | 0.00 | 0.00 | 0.00 | 93 | 1016.9 |
| 20260502123001 | 66 | 67 | 10.0 | 13.0 | 0.00 | 0.00 | 0.00 | 92 | 1018.5 |
| 20260502121559 | 66 | 56 | 7.0 | 11.0 | 0.00 | 0.00 | 0.00 | 92 | 1018.6 |
| 20260502120105 | 66 | 56 | 7.0 | 10.0 | 0.00 | 0.00 | 0.00 | 92 | 1018.7 |
| 20260502114600 | 66 | 72 | 7.0 | 11.0 | 0.00 | 0.00 | 0.00 | 92 | 1018.7 |
| 20260502113100 | 66 | 65 | 7.0 | 11.0 | 0.00 | 0.00 | 0.00 | 92 | 1018.7 |
| 20260502111554 | 66 | 61 | 8.0 | 12.0 | 0.00 | 0.00 | 0.00 | 92 | 1018.9 |
| 20260502110057 | 66 | 67 | 10.0 | 13.0 | 0.00 | 0.00 | 0.00 | 91 | 1018.9 |
| 20260502104546 | 66 | 44 | 7.0 | 12.0 | 0.00 | 0.00 | 0.00 | 91 | 1019.2 |
| 20260502103041 | 66 | 77 | 8.0 | 12.0 | 0.00 | 0.00 | 0.00 | 90 | 1019.4 |
| 20260502101544 | 65 | 60 | 9.0 | 12.0 | 0.00 | 0.00 | 0.00 | 90 | 1019.4 |
| 20260502091533 | 65 | 70 | 11.0 | 14.0 | 0.00 | 0.00 | 0.00 | 90 | 1019.5 |
| 20260502071517 | 65 | 68 | 7.0 | 11.0 | 0.00 | 0.00 | 0.00 | 91 | 1019.5 |
| 20260502070016 | 65 | 61 | 9.0 | 12.0 | 0.00 | 0.00 | 0.00 | 91 | 1019.5 |
| 20260502064534 | 64 | 65 | 10.0 | 12.0 | 0.00 | 0.00 | 0.00 | 92 | 1019.3 |
| 20260502063014 | 64 | 71 | 9.0 | 11.0 | 0.00 | 0.00 | 0.00 | 91 | 1019.4 |
| 20260502061513 | 64 | 61 | 8.0 | 11.0 | 0.00 | 0.00 | 0.00 | 90 | 1019.4 |
| 20260502060011 | 64 | 56 | 7.0 | 9.0 | 0.00 | 0.00 | 0.00 | 89 | 1019.4 |
| 20260502054511 | 64 | 65 | 1.0 | 4.0 | 0.00 | 0.00 | 0.00 | 90 | 1019.3 |
| 20260502053010 | 64 | 43 | 1.0 | 2.0 | 0.00 | 0.00 | 0.00 | 90 | 1019.3 |
| 20260502051508 | 64 | 36 | 0.0 | 3.0 | 0.00 | 0.00 | 0.00 | 90 | 1019.2 |
| 20260502050017 | 63 | 26 | 0.0 | 5.0 | 0.00 | 0.00 | 0.00 | 90 | 1019.1 |
| 20260502044509 | 63 | 11 | 1.0 | 5.0 | 0.00 | 0.00 | 0.00 | 91 | 1019.0 |
| 20260502043007 | 64 | 33 | 2.0 | 3.0 | 0.00 | 0.00 | 0.00 | 90 | 1018.9 |
| 20260502041505 | 64 | 36 | 2.0 | 3.0 | 0.00 | 0.00 | 0.00 | 91 | 1019.2 |
| 20260502040005 | 64 | 11 | 1.0 | 4.0 | 0.00 | 0.00 | 0.00 | 92 | 1019.2 |
| 20260502034505 | 63 | 333 | 2.0 | 0.0 | 0.00 | 0.00 | 0.00 | 92 | 1019.3 |
| 20260502033003 | 63 | 302 | 1.0 | 4.0 | 0.00 | 0.00 | 0.00 | 92 | 1019.3 |
| 20260502031502 | 63 | 302 | 1.0 | 5.0 | 0.00 | 0.00 | 0.00 | 93 | 1019.3 |
| 20260502030003 | 63 | 288 | 1.0 | 4.0 | 0.00 | 0.00 | 0.00 | 93 | 1019.6 |
| 20260502024501 | 63 | 331 | 3.0 | 5.0 | 0.00 | 0.00 | 0.00 | 93 | 1019.3 |
| 20260502023100 | 63 | 34 | 4.0 | 6.0 | 0.00 | 0.00 | 0.00 | 93 | 1019.2 |
| 20260502021559 | 63 | 21 | 4.0 | 7.0 | 0.00 | 0.00 | 0.00 | 93 | 1019.4 |
| 20260502020112 | 64 | 68 | 8.0 | 10.0 | 0.00 | 0.00 | 0.00 | 93 | 1019.3 |
| 20260502014557 | 64 | 69 | 4.0 | 6.0 | 0.00 | 0.00 | 0.00 | 92 | 1019.5 |
| 20260502013053 | 64 | 74 | 3.0 | 7.0 | 0.00 | 0.00 | 0.00 | 90 | 1019.6 |
| 20260502011554 | 64 | 68 | 7.0 | 10.0 | 0.00 | 0.00 | 0.00 | 89 | 1019.7 |
| 20260502010050 | 64 | 76 | 6.0 | 9.0 | 0.00 | 0.00 | 0.00 | 89 | 1020.0 |
| 20260502004554 | 64 | 46 | 5.0 | 9.0 | 0.00 | 0.00 | 0.00 | 90 | 1020.1 |
| 20260502003049 | 64 | 62 | 5.0 | 10.0 | 0.00 | 0.00 | 0.00 | 90 | 1020.3 |
| 20260502001622 | 64 | 58 | 6.0 | 9.0 | 0.00 | 0.00 | 0.00 | 90 | 1020.5 |
| 20260502000042 | 64 | 51 | 5.0 | 10.0 | 0.00 | 0.00 | 0.00 | 91 | 1020.6 |
| 20260501234540 | 64 | 50 | 6.0 | 12.0 | 0.00 | 0.00 | 0.00 | 91 | 1020.8 |
| 20260501233038 | 64 | 68 | 10.0 | 14.0 | 0.00 | 0.00 | 0.00 | 91 | 1020.8 |
| 20260501231538 | 64 | 46 | 9.0 | 14.0 | 0.00 | 0.00 | 0.00 | 90 | 1020.8 |
| 20260501230035 | 64 | 61 | 9.0 | 13.0 | 0.00 | 0.00 | 0.00 | 91 | 1020.7 |
| 20260501224538 | 64 | 74 | 11.0 | 15.0 | 0.00 | 0.00 | 0.00 | 91 | 1020.7 |
| 20260501223032 | 64 | 68 | 12.0 | 16.0 | 0.00 | 0.00 | 0.00 | 91 | 1020.7 |
| 20260501221528 | 64 | 70 | 13.0 | 18.0 | 0.00 | 0.00 | 0.00 | 91 | 1020.7 |
| 20260501220026 | 64 | 47 | 11.0 | 15.0 | 0.00 | 0.00 | 0.00 | 92 | 1020.8 |
| 20260501214526 | 64 | 70 | 8.0 | 12.0 | 0.00 | 0.00 | 0.00 | 92 | 1021.0 |
| 20260501213023 | 64 | 83 | 5.0 | 10.0 | 0.00 | 0.00 | 0.00 | 93 | 1021.1 |
| 20260501211523 | 64 | 90 | 9.0 | 16.0 | 0.00 | 0.00 | 0.00 | 93 | 1020.9 |
| 20260501210030 | 64 | 70 | 12.0 | 16.0 | 0.00 | 0.00 | 0.00 | 93 | 1020.7 |
| 20260501204520 | 64 | 70 | 10.0 | 14.0 | 0.00 | 0.00 | 0.00 | 93 | 1020.8 |
| 20260501203018 | 64 | 60 | 6.0 | 13.0 | 0.00 | 0.00 | 0.00 | 93 | 1020.9 |
| 20260501201516 | 64 | 74 | 9.0 | 14.0 | 0.00 | 0.00 | 0.00 | 92 | 1020.8 |
| 20260501200014 | 64 | 61 | 11.0 | 14.0 | 0.00 | 0.00 | 0.00 | 92 | 1020.5 |
| 20260501194512 | 64 | 44 | 9.0 | 13.0 | 0.00 | 0.00 | 0.00 | 92 | 1020.4 |
| 20260501193010 | 64 | 70 | 8.0 | 13.0 | 0.00 | 0.00 | 0.00 | 91 | 1020.2 |
| 20260501191510 | 64 | 50 | 10.0 | 15.0 | 0.00 | 0.00 | 0.00 | 91 | 1020.0 |